Time,TemperatureF,DewpointF,PressureIn,WindDirection,WindDirectionDegrees,WindSpeedMPH,WindSpeedGustMPH,Humidity,HourlyPrecipIn,Conditions,Clouds,dailyrainin,SoftwareType,DateUTC
2013-01-22 00:02:00,56.5,34.2,29.91,East,90,6.3,7.2,43,0.00,,,0.00,WUHU216HW,2013-01-22 08:02:00,
2013-01-22 00:07:00,56.5,33.6,29.90,East,90,6.9,7.2,42,0.00,,,0.00,WUHU216HW,2013-01-22 08:07:00,
2013-01-22 00:12:00,56.5,34.2,29.91,ENE,68,4.3,6.9,43,0.00,,,0.00,WUHU216HW,2013-01-22 08:12:00,
2013-01-22 00:17:00,56.3,34.0,29.90,ENE,68,4.3,8.1,43,0.00,,,0.00,WUHU216HW,2013-01-22 08:17:00,
2013-01-22 00:22:00,56.2,33.8,29.90,ENE,68,4.3,8.1,43,0.00,,,0.00,WUHU216HW,2013-01-22 08:22:00,
2013-01-22 00:27:00,56.0,33.7,29.90,East,90,4.0,5.8,43,0.00,,,0.00,WUHU216HW,2013-01-22 08:27:00,
2013-01-22 00:32:00,55.8,33.5,29.90,ESE,113,5.1,8.5,43,0.00,,,0.00,WUHU216HW,2013-01-22 08:32:00,
2013-01-22 00:37:00,55.8,33.5,29.90,ESE,113,8.3,8.5,43,0.00,,,0.00,WUHU216HW,2013-01-22 08:37:00,
2013-01-22 00:42:00,55.4,33.8,29.90,ENE,68,4.0,8.9,44,0.00,,,0.00,WUHU216HW,2013-01-22 08:42:00,
2013-01-22 00:47:00,54.7,33.7,29.90,ENE,68,2.9,8.9,45,0.00,,,0.00,WUHU216HW,2013-01-22 08:47:00,
2013-01-22 00:52:00,54.4,33.8,29.90,East,90,4.5,4.7,46,0.00,,,0.00,WUHU216HW,2013-01-22 08:52:00,
2013-01-22 00:57:00,54.4,33.8,29.90,East,90,2.7,4.5,46,0.00,,,0.00,WUHU216HW,2013-01-22 08:57:00,
2013-01-22 01:02:00,54.0,34.1,29.90,East,90,3.4,4.0,47,0.00,,,0.00,WUHU216HW,2013-01-22 09:02:00,
2013-01-22 01:07:00,53.6,34.4,29.90,ESE,113,1.8,3.8,48,0.00,,,0.00,WUHU216HW,2013-01-22 09:07:00,
2013-01-22 01:12:00,53.1,33.8,29.89,East,90,2.5,3.8,48,0.00,,,0.00,WUHU216HW,2013-01-22 09:12:00,
2013-01-22 01:17:00,52.9,32.6,29.89,ESE,113,4.0,6.3,46,0.00,,,0.00,WUHU216HW,2013-01-22 09:17:00,
2013-01-22 01:22:00,52.9,32.6,29.89,East,90,4.3,6.7,46,0.00,,,0.00,WUHU216HW,2013-01-22 09:22:00,
2013-01-22 01:27:00,52.7,32.4,29.89,ESE,113,4.5,6.7,46,0.00,,,0.00,WUHU216HW,2013-01-22 09:27:00,
2013-01-22 01:32:00,52.6,32.2,29.89,ESE,113,5.8,6.7,46,0.00,,,0.00,WUHU216HW,2013-01-22 09:32:00,
2013-01-22 01:37:00,52.2,32.5,29.89,East,90,4.7,7.6,47,0.00,,,0.00,WUHU216HW,2013-01-22 09:37:00,
2013-01-22 01:42:00,52.0,32.3,29.89,East,90,4.0,7.6,47,0.00,,,0.00,WUHU216HW,2013-01-22 09:42:00,
2013-01-22 01:47:00,51.7,32.1,29.89,East,90,4.0,5.4,47,0.00,,,0.00,WUHU216HW,2013-01-22 09:47:00,
2013-01-22 01:52:00,51.5,31.9,29.89,East,90,3.1,5.8,47,0.00,,,0.00,WUHU216HW,2013-01-22 09:52:00,
2013-01-22 01:57:00,51.5,31.9,29.89,ESE,113,4.7,5.8,47,0.00,,,0.00,WUHU216HW,2013-01-22 09:57:00,
2013-01-22 02:02:00,51.5,31.9,29.89,East,90,2.5,5.4,47,0.00,,,0.00,WUHU216HW,2013-01-22 10:02:00,
2013-01-22 02:07:00,51.1,31.5,29.89,East,90,2.5,3.8,47,0.00,,,0.00,WUHU216HW,2013-01-22 10:07:00,
2013-01-22 02:12:00,51.1,31.0,29.89,East,90,3.8,3.8,46,0.00,,,0.00,WUHU216HW,2013-01-22 10:12:00,
2013-01-22 02:17:00,51.3,31.2,29.89,NE,45,2.2,5.8,46,0.00,,,0.00,WUHU216HW,2013-01-22 10:17:00,
2013-01-22 02:22:00,51.3,30.6,29.89,ENE,68,1.1,5.8,45,0.00,,,0.00,WUHU216HW,2013-01-22 10:22:00,
2013-01-22 02:27:00,51.3,30.6,29.89,ENE,68,3.4,4.5,45,0.00,,,0.00,WUHU216HW,2013-01-22 10:27:00,
2013-01-22 02:32:00,51.5,31.3,29.89,ENE,68,3.8,5.6,46,0.00,,,0.00,WUHU216HW,2013-01-22 10:32:00,
2013-01-22 02:37:00,51.7,31.4,29.89,ENE,68,4.0,5.6,46,0.00,,,0.00,WUHU216HW,2013-01-22 10:37:00,
2013-01-22 02:42:00,51.5,31.3,29.89,East,90,4.7,5.4,46,0.00,,,0.00,WUHU216HW,2013-01-22 10:42:00,
2013-01-22 02:47:00,51.5,31.9,29.89,ENE,68,5.4,7.6,47,0.00,,,0.00,WUHU216HW,2013-01-22 10:47:00,
2013-01-22 02:52:00,51.3,31.7,29.89,East,90,6.5,9.2,47,0.00,,,0.00,WUHU216HW,2013-01-22 10:52:00,
2013-01-22 02:57:00,51.1,32.0,29.88,ESE,113,8.1,9.2,48,0.00,,,0.00,WUHU216HW,2013-01-22 10:57:00,
2013-01-22 03:02:00,50.8,31.8,29.88,East,90,6.9,8.7,48,0.00,,,0.00,WUHU216HW,2013-01-22 11:02:00,
2013-01-22 03:07:00,50.8,31.8,29.87,East,90,6.3,8.7,48,0.00,,,0.00,WUHU216HW,2013-01-22 11:07:00,
2013-01-22 03:12:00,50.8,31.8,29.87,East,90,7.2,7.8,48,0.00,,,0.00,WUHU216HW,2013-01-22 11:12:00,
2013-01-22 03:17:00,50.8,31.8,29.87,ESE,113,7.6,9.2,48,0.00,,,0.00,WUHU216HW,2013-01-22 11:17:00,
2013-01-22 03:22:00,50.8,31.8,29.87,East,90,6.9,9.2,48,0.00,,,0.00,WUHU216HW,2013-01-22 11:22:00,
2013-01-22 03:27:00,50.8,31.8,29.87,ESE,113,5.4,8.5,48,0.00,,,0.00,WUHU216HW,2013-01-22 11:27:00,
2013-01-22 03:32:00,50.9,32.0,29.87,ESE,113,8.3,8.3,48,0.00,,,0.00,WUHU216HW,2013-01-22 11:32:00,
2013-01-22 03:37:00,51.1,32.0,29.87,East,90,6.3,9.2,48,0.00,,,0.00,WUHU216HW,2013-01-22 11:37:00,
2013-01-22 03:42:00,51.1,32.0,29.87,East,90,6.9,9.2,48,0.00,,,0.00,WUHU216HW,2013-01-22 11:42:00,
2013-01-22 03:47:00,51.1,32.0,29.87,East,90,7.4,8.7,48,0.00,,,0.00,WUHU216HW,2013-01-22 11:47:00,
2013-01-22 03:52:00,51.1,32.0,29.87,SE,135,6.5,8.5,48,0.00,,,0.00,WUHU216HW,2013-01-22 11:52:00,
2013-01-22 03:57:00,50.9,32.0,29.87,ENE,68,6.5,9.2,48,0.00,,,0.00,WUHU216HW,2013-01-22 11:57:00,
2013-01-22 04:02:00,50.9,31.3,29.87,ESE,113,6.0,9.6,47,0.00,,,0.00,WUHU216HW,2013-01-22 12:02:00,
2013-01-22 04:07:00,51.1,31.5,29.87,East,90,6.9,8.7,47,0.00,,,0.00,WUHU216HW,2013-01-22 12:07:00,
2013-01-22 04:12:00,51.5,31.3,29.87,ESE,113,10.1,10.1,46,0.00,,,0.00,WUHU216HW,2013-01-22 12:12:00,
2013-01-22 04:17:00,51.8,31.6,29.87,East,90,5.1,10.1,46,0.00,,,0.00,WUHU216HW,2013-01-22 12:17:00,
2013-01-22 04:22:00,51.7,31.4,29.87,East,90,6.5,9.8,46,0.00,,,0.00,WUHU216HW,2013-01-22 12:22:00,
2013-01-22 04:27:00,51.8,31.1,29.87,East,90,6.0,8.5,45,0.00,,,0.00,WUHU216HW,2013-01-22 12:27:00,
2013-01-22 04:32:00,52.0,30.7,29.87,East,90,9.8,9.8,44,0.00,,,0.00,WUHU216HW,2013-01-22 12:32:00,
2013-01-22 04:37:00,52.0,30.7,29.87,East,90,7.6,9.8,44,0.00,,,0.00,WUHU216HW,2013-01-22 12:37:00,
2013-01-22 04:42:00,52.0,30.7,29.87,SSE,158,9.2,9.4,44,0.00,,,0.00,WUHU216HW,2013-01-22 12:42:00,
2013-01-22 04:47:00,52.0,30.1,29.87,ESE,113,9.8,9.8,43,0.00,,,0.00,WUHU216HW,2013-01-22 12:47:00,
2013-01-22 04:52:00,52.0,30.1,29.87,ESE,113,8.5,9.8,43,0.00,,,0.00,WUHU216HW,2013-01-22 12:52:00,
2013-01-22 04:57:00,51.7,30.3,29.87,NE,45,6.5,9.4,44,0.00,,,0.00,WUHU216HW,2013-01-22 12:57:00,
2013-01-22 05:02:00,51.1,30.4,29.87,ESE,113,5.4,8.5,45,0.00,,,0.00,WUHU216HW,2013-01-22 13:02:00,
2013-01-22 05:07:00,50.6,31.1,29.87,ESE,113,6.0,9.2,47,0.00,,,0.00,WUHU216HW,2013-01-22 13:07:00,
2013-01-22 05:12:00,50.6,31.6,29.87,ESE,113,6.3,9.2,48,0.00,,,0.00,WUHU216HW,2013-01-22 13:12:00,
2013-01-22 05:17:00,50.4,31.4,29.87,ESE,113,8.7,8.7,48,0.00,,,0.00,WUHU216HW,2013-01-22 13:17:00,
2013-01-22 05:22:00,50.4,31.4,29.87,ESE,113,7.6,8.7,48,0.00,,,0.00,WUHU216HW,2013-01-22 13:22:00,
2013-01-22 05:27:00,50.6,31.6,29.87,East,90,7.8,9.2,48,0.00,,,0.00,WUHU216HW,2013-01-22 13:27:00,
2013-01-22 05:32:00,50.4,31.4,29.87,East,90,9.2,10.1,48,0.00,,,0.00,WUHU216HW,2013-01-22 13:32:00,
2013-01-22 05:37:00,50.2,31.2,29.88,ENE,68,5.4,10.1,48,0.00,,,0.00,WUHU216HW,2013-01-22 13:37:00,
2013-01-22 05:42:00,49.9,31.5,29.87,East,90,5.4,8.7,49,0.00,,,0.00,WUHU216HW,2013-01-22 13:42:00,
2013-01-22 05:47:00,49.7,31.3,29.88,East,90,5.6,8.1,49,0.00,,,0.00,WUHU216HW,2013-01-22 13:47:00,
2013-01-22 05:52:00,50.0,31.2,29.88,East,90,5.4,7.4,48,0.00,,,0.00,WUHU216HW,2013-01-22 13:52:00,
2013-01-22 05:57:00,50.0,30.0,29.88,East,90,9.8,9.8,46,0.00,,,0.00,WUHU216HW,2013-01-22 13:57:00,
2013-01-22 06:03:00,50.4,30.3,29.88,ESE,113,8.7,9.8,46,0.00,,,0.00,WUHU216HW,2013-01-22 14:03:00,
2013-01-22 06:08:00,50.8,29.5,29.88,East,90,6.0,8.7,44,0.00,,,0.00,WUHU216HW,2013-01-22 14:08:00,
2013-01-22 06:13:00,51.1,29.3,29.88,East,90,7.4,8.7,43,0.00,,,0.00,WUHU216HW,2013-01-22 14:13:00,
2013-01-22 06:17:00,51.5,29.1,29.88,East,90,6.5,10.1,42,0.00,,,0.00,WUHU216HW,2013-01-22 14:17:00,
2013-01-22 06:23:00,51.7,29.3,29.89,East,90,8.5,10.1,42,0.00,,,0.00,WUHU216HW,2013-01-22 14:23:00,
2013-01-22 06:28:00,51.8,28.8,29.88,ENE,68,9.8,9.8,41,0.00,,,0.00,WUHU216HW,2013-01-22 14:28:00,
2013-01-22 06:33:00,52.2,29.2,29.88,ENE,68,5.1,9.8,41,0.00,,,0.00,WUHU216HW,2013-01-22 14:33:00,
2013-01-22 06:38:00,52.2,29.2,29.89,East,90,5.4,8.5,41,0.00,,,0.00,WUHU216HW,2013-01-22 14:38:00,
2013-01-22 06:43:00,52.4,29.4,29.89,ENE,68,6.5,8.5,41,0.00,,,0.00,WUHU216HW,2013-01-22 14:43:00,
2013-01-22 06:48:00,52.6,29.4,29.89,ENE,68,7.4,8.5,41,0.00,,,0.00,WUHU216HW,2013-01-22 14:48:00,
2013-01-22 06:53:00,52.9,29.3,29.89,East,90,8.7,8.7,40,0.00,,,0.00,WUHU216HW,2013-01-22 14:53:00,
2013-01-22 06:58:00,53.1,28.7,29.89,East,90,6.9,10.7,39,0.00,,,0.00,WUHU216HW,2013-01-22 14:58:00,
2013-01-22 07:03:00,53.3,28.9,29.89,East,90,8.3,10.7,39,0.00,,,0.00,WUHU216HW,2013-01-22 15:03:00,
2013-01-22 07:08:00,53.1,28.7,29.89,ENE,68,6.3,8.9,39,0.00,,,0.00,WUHU216HW,2013-01-22 15:08:00,
2013-01-22 07:13:00,53.3,28.2,29.88,East,90,7.2,11.2,38,0.00,,,0.00,WUHU216HW,2013-01-22 15:13:00,
2013-01-22 07:18:00,53.5,28.4,29.89,ENE,68,5.4,11.2,38,0.00,,,0.00,WUHU216HW,2013-01-22 15:18:00,
2013-01-22 07:23:00,53.3,28.2,29.89,East,90,6.9,11.0,38,0.00,,,0.00,WUHU216HW,2013-01-22 15:23:00,
2013-01-22 07:28:00,53.1,28.0,29.89,East,90,4.9,6.9,38,0.00,,,0.00,WUHU216HW,2013-01-22 15:28:00,
2013-01-22 07:33:00,52.9,27.9,29.89,ENE,68,2.9,7.2,38,0.00,,,0.00,WUHU216HW,2013-01-22 15:33:00,
2013-01-22 07:38:00,52.4,27.4,29.89,East,90,4.7,7.2,38,0.00,,,0.00,WUHU216HW,2013-01-22 15:38:00,
2013-01-22 07:43:00,52.2,27.9,29.89,East,90,2.7,4.7,39,0.00,,,0.00,WUHU216HW,2013-01-22 15:43:00,
2013-01-22 07:48:00,52.6,28.3,29.89,East,90,4.0,4.0,39,0.00,,,0.00,WUHU216HW,2013-01-22 15:48:00,
2013-01-22 07:53:00,52.6,28.3,29.89,North,0,0.2,4.0,39,0.00,,,0.00,WUHU216HW,2013-01-22 15:53:00,
2013-01-22 07:58:00,52.9,29.3,29.89,ENE,68,0.4,3.8,40,0.00,,,0.00,WUHU216HW,2013-01-22 15:58:00,
2013-01-22 08:03:00,53.3,29.5,29.89,East,90,1.6,3.8,40,0.00,,,0.00,WUHU216HW,2013-01-22 16:03:00,
2013-01-22 08:08:00,53.3,29.5,29.89,ENE,68,1.3,2.2,40,0.00,,,0.00,WUHU216HW,2013-01-22 16:08:00,
2013-01-22 08:13:00,53.5,29.7,29.89,North,0,2.5,2.9,40,0.00,,,0.00,WUHU216HW,2013-01-22 16:13:00,
2013-01-22 08:18:00,53.8,30.1,29.89,East,90,3.8,3.8,40,0.00,,,0.00,WUHU216HW,2013-01-22 16:18:00,
2013-01-22 08:23:00,53.6,31.6,29.89,SE,135,3.6,3.8,43,0.00,,,0.00,WUHU216HW,2013-01-22 16:23:00,
2013-01-22 08:28:00,53.3,30.7,29.89,ENE,68,3.1,4.3,42,0.00,,,0.00,WUHU216HW,2013-01-22 16:28:00,
2013-01-22 08:33:00,52.9,30.9,29.89,East,90,2.5,4.3,43,0.00,,,0.00,WUHU216HW,2013-01-22 16:33:00,
2013-01-22 08:38:00,53.1,31.6,29.89,ESE,113,2.5,3.4,44,0.00,,,0.00,WUHU216HW,2013-01-22 16:38:00,
2013-01-22 08:43:00,53.6,32.1,29.89,East,90,3.4,5.4,44,0.00,,,0.00,WUHU216HW,2013-01-22 16:43:00,
2013-01-22 08:48:00,54.0,31.9,29.89,ESE,113,3.6,5.4,43,0.00,,,0.00,WUHU216HW,2013-01-22 16:48:00,
2013-01-22 08:53:00,54.0,31.9,29.89,ESE,113,4.5,6.9,43,0.00,,,0.00,WUHU216HW,2013-01-22 16:53:00,
2013-01-22 08:58:00,54.4,31.1,29.89,ESE,113,7.4,7.8,41,0.00,,,0.00,WUHU216HW,2013-01-22 16:58:00,
2013-01-22 09:03:00,54.4,32.2,29.89,East,90,5.8,8.3,43,0.00,,,0.00,WUHU216HW,2013-01-22 17:03:00,
2013-01-22 09:08:00,54.4,32.2,29.89,East,90,6.9,8.3,43,0.00,,,0.00,WUHU216HW,2013-01-22 17:08:00,
2013-01-22 09:13:00,54.5,32.4,29.89,ESE,113,7.6,7.6,43,0.00,,,0.00,WUHU216HW,2013-01-22 17:13:00,
2013-01-22 09:18:00,54.7,32.5,29.89,East,90,5.1,7.6,43,0.00,,,0.00,WUHU216HW,2013-01-22 17:18:00,
2013-01-22 09:23:00,55.1,32.9,29.89,ESE,113,6.3,8.7,43,0.00,,,0.00,WUHU216HW,2013-01-22 17:23:00,
2013-01-22 09:28:00,55.3,31.9,29.89,ESE,113,5.8,8.9,41,0.00,,,0.00,WUHU216HW,2013-01-22 17:28:00,
2013-01-22 09:33:00,55.4,33.2,29.89,ESE,113,8.1,8.9,43,0.00,,,0.00,WUHU216HW,2013-01-22 17:33:00,
2013-01-22 09:38:00,55.6,32.8,29.89,East,90,8.5,8.5,42,0.00,,,0.00,WUHU216HW,2013-01-22 17:38:00,
2013-01-22 09:43:00,55.8,33.5,29.90,ESE,113,6.3,8.5,43,0.00,,,0.00,WUHU216HW,2013-01-22 17:43:00,
2013-01-22 09:48:00,56.2,33.8,29.90,ENE,68,6.5,8.5,43,0.00,,,0.00,WUHU216HW,2013-01-22 17:48:00,
2013-01-22 09:53:00,56.5,34.7,29.90,East,90,5.8,8.5,44,0.00,,,0.00,WUHU216HW,2013-01-22 17:53:00,
2013-01-22 09:58:00,57.2,34.3,29.90,East,90,7.8,8.1,42,0.00,,,0.00,WUHU216HW,2013-01-22 17:58:00,
2013-01-22 10:03:00,58.0,34.4,29.90,ESE,113,6.9,8.1,41,0.00,,,0.00,WUHU216HW,2013-01-22 18:03:00,
2013-01-22 10:08:00,58.5,33.6,29.90,ESE,113,5.4,6.9,39,0.00,,,0.00,WUHU216HW,2013-01-22 18:08:00,
2013-01-22 10:13:00,59.2,33.5,29.90,SE,135,5.8,11.2,38,0.00,,,0.00,WUHU216HW,2013-01-22 18:13:00,
2013-01-22 10:18:00,59.4,32.9,29.90,ESE,113,7.6,11.2,37,0.00,,,0.00,WUHU216HW,2013-01-22 18:18:00,
2013-01-22 10:23:00,59.6,33.1,29.90,SE,135,9.2,10.7,37,0.00,,,0.00,WUHU216HW,2013-01-22 18:23:00,
2013-01-22 10:28:00,59.4,32.2,29.90,ESE,113,7.8,12.1,36,0.00,,,0.00,WUHU216HW,2013-01-22 18:28:00,
2013-01-22 10:33:00,59.4,33.7,29.90,ESE,113,8.9,12.1,38,0.00,,,0.00,WUHU216HW,2013-01-22 18:33:00,
2013-01-22 10:38:00,59.4,32.9,29.90,ESE,113,8.7,11.9,37,0.00,,,0.00,WUHU216HW,2013-01-22 18:38:00,
2013-01-22 10:43:00,59.6,33.9,29.90,ESE,113,7.6,12.1,38,0.00,,,0.00,WUHU216HW,2013-01-22 18:43:00,
2013-01-22 10:48:00,59.8,31.9,29.90,ESE,113,12.3,14.3,35,0.00,,,0.00,WUHU216HW,2013-01-22 18:48:00,
2013-01-22 10:53:00,60.1,34.3,29.90,ESE,113,6.9,14.3,38,0.00,,,0.00,WUHU216HW,2013-01-22 18:53:00,
2013-01-22 10:58:00,60.7,34.0,29.90,ESE,113,9.8,12.8,37,0.00,,,0.00,WUHU216HW,2013-01-22 18:58:00,
2013-01-22 11:03:00,60.8,34.2,29.90,ESE,113,11.9,13.4,37,0.00,,,0.00,WUHU216HW,2013-01-22 19:03:00,
2013-01-22 11:08:00,61.4,33.9,29.90,ESE,113,8.7,13.4,36,0.00,,,0.00,WUHU216HW,2013-01-22 19:08:00,
2013-01-22 11:13:00,61.6,32.7,29.89,East,90,11.6,13.4,34,0.00,,,0.00,WUHU216HW,2013-01-22 19:13:00,
2013-01-22 11:18:00,61.4,32.5,29.89,ESE,113,9.4,13.4,34,0.00,,,0.00,WUHU216HW,2013-01-22 19:18:00,
2013-01-22 11:23:00,61.6,34.1,29.89,ESE,113,8.3,11.2,36,0.00,,,0.00,WUHU216HW,2013-01-22 19:23:00,
2013-01-22 11:28:00,61.9,33.8,29.89,ESE,113,8.9,11.2,35,0.00,,,0.00,WUHU216HW,2013-01-22 19:28:00,
2013-01-22 11:33:00,62.5,36.4,29.89,SE,135,4.0,10.7,38,0.00,,,0.00,WUHU216HW,2013-01-22 19:33:00,
2013-01-22 11:38:00,63.4,37.2,29.88,SSW,203,1.3,7.4,38,0.00,,,0.00,WUHU216HW,2013-01-22 19:38:00,
2013-01-22 11:43:00,64.4,38.9,29.89,South,180,4.0,4.7,39,0.00,,,0.00,WUHU216HW,2013-01-22 19:43:00,
2013-01-22 11:48:00,65.5,39.2,29.89,SE,135,2.2,4.7,38,0.00,,,0.00,WUHU216HW,2013-01-22 19:48:00,
2013-01-22 11:53:00,66.4,37.1,29.88,East,90,3.6,4.7,34,0.00,,,0.00,WUHU216HW,2013-01-22 19:53:00,
2013-01-22 11:58:00,66.6,37.9,29.88,ESE,113,6.3,8.3,35,0.00,,,0.00,WUHU216HW,2013-01-22 19:58:00,
2013-01-22 12:03:00,67.0,36.1,29.88,ESE,113,5.1,8.9,32,0.00,,,0.00,WUHU216HW,2013-01-22 20:03:00,
2013-01-22 12:08:00,67.1,36.2,29.87,SE,135,4.3,9.2,32,0.00,,,0.00,WUHU216HW,2013-01-22 20:08:00,
2013-01-22 12:13:00,67.5,37.3,29.87,SE,135,5.6,9.2,33,0.00,,,0.00,WUHU216HW,2013-01-22 20:13:00,
2013-01-22 12:18:00,67.9,37.5,29.87,SE,135,5.8,5.8,33,0.00,,,0.00,WUHU216HW,2013-01-22 20:18:00,
2013-01-22 12:23:00,67.7,36.6,29.87,East,90,5.4,6.7,32,0.00,,,0.00,WUHU216HW,2013-01-22 20:23:00,
2013-01-22 12:28:00,67.9,37.5,29.87,SE,135,4.0,7.8,33,0.00,,,0.00,WUHU216HW,2013-01-22 20:28:00,
2013-01-22 12:33:00,67.9,38.3,29.86,East,90,6.9,7.8,34,0.00,,,0.00,WUHU216HW,2013-01-22 20:33:00,
2013-01-22 12:38:00,68.0,38.4,29.86,ESE,113,3.6,6.9,34,0.00,,,0.00,WUHU216HW,2013-01-22 20:38:00,
2013-01-22 12:43:00,68.2,37.8,29.86,East,90,5.4,6.0,33,0.00,,,0.00,WUHU216HW,2013-01-22 20:43:00,
2013-01-22 12:48:00,67.9,38.3,29.85,ESE,113,4.0,6.0,34,0.00,,,0.00,WUHU216HW,2013-01-22 20:48:00,
2013-01-22 12:53:00,67.9,39.0,29.85,ESE,113,4.0,7.2,35,0.00,,,0.00,WUHU216HW,2013-01-22 20:53:00,
2013-01-22 12:58:00,67.9,38.3,29.85,East,90,5.1,7.2,34,0.00,,,0.00,WUHU216HW,2013-01-22 20:58:00,
2013-01-22 13:03:00,68.0,38.4,29.85,East,90,3.4,6.3,34,0.00,,,0.00,WUHU216HW,2013-01-22 21:03:00,
2013-01-22 13:08:00,68.0,38.4,29.85,ESE,113,4.3,6.3,34,0.00,,,0.00,WUHU216HW,2013-01-22 21:08:00,
2013-01-22 13:13:00,68.0,38.4,29.85,ENE,68,2.0,6.3,34,0.00,,,0.00,WUHU216HW,2013-01-22 21:13:00,
2013-01-22 13:18:00,68.2,38.6,29.84,ESE,113,2.5,6.3,34,0.00,,,0.00,WUHU216HW,2013-01-22 21:18:00,
2013-01-22 13:24:00,68.4,38.7,29.84,ESE,113,1.1,5.4,34,0.00,,,0.00,WUHU216HW,2013-01-22 21:24:00,
2013-01-22 13:29:00,69.1,40.2,29.84,NW,315,0.7,3.6,35,0.00,,,0.00,WUHU216HW,2013-01-22 21:29:00,
2013-01-22 13:31:00,69.5,40.4,29.84,NNW,338,0.9,2.5,35,0.00,,,0.00,WUHU216HW,2013-01-22 21:31:00,
2013-01-22 13:36:00,70.0,41.0,29.84,WSW,248,4.0,4.0,35,0.00,,,0.00,WUHU216HW,2013-01-22 21:36:00,
2013-01-22 13:41:00,69.8,36.1,29.84,WNW,293,5.8,13.4,29,0.00,,,0.00,WUHU216HW,2013-01-22 21:41:00,
2013-01-22 13:46:00,69.1,34.5,29.84,NW,315,7.4,13.4,28,0.00,,,0.00,WUHU216HW,2013-01-22 21:46:00,
2013-01-22 13:51:00,68.9,32.3,29.84,WNW,293,11.0,11.0,26,0.00,,,0.00,WUHU216HW,2013-01-22 21:51:00,
2013-01-22 13:56:00,68.6,33.9,29.85,WNW,293,7.2,11.0,28,0.00,,,0.00,WUHU216HW,2013-01-22 21:56:00,
2013-01-22 14:01:00,68.2,33.7,29.84,NW,315,7.6,8.1,28,0.00,,,0.00,WUHU216HW,2013-01-22 22:01:00,
2013-01-22 14:06:00,68.0,34.5,29.84,NW,315,4.9,8.1,29,0.00,,,0.00,WUHU216HW,2013-01-22 22:06:00,
2013-01-22 14:11:00,67.9,35.3,29.84,WNW,293,6.9,8.3,30,0.00,,,0.00,WUHU216HW,2013-01-22 22:11:00,
2013-01-22 14:16:00,68.0,35.5,29.84,NW,315,3.4,8.3,30,0.00,,,0.00,WUHU216HW,2013-01-22 22:16:00,
2013-01-22 14:21:00,68.0,36.9,29.84,NNW,338,1.3,5.6,32,0.00,,,0.00,WUHU216HW,2013-01-22 22:21:00,
2013-01-22 14:26:00,68.4,35.8,29.84,WNW,293,1.8,6.5,30,0.00,,,0.00,WUHU216HW,2013-01-22 22:26:00,
2013-01-22 14:31:00,68.6,33.9,29.84,NW,315,6.5,9.4,28,0.00,,,0.00,WUHU216HW,2013-01-22 22:31:00,
2013-01-22 14:36:00,68.9,35.3,29.84,NW,315,0.4,9.4,29,0.00,,,0.00,WUHU216HW,2013-01-22 22:36:00,
2013-01-22 14:41:00,68.8,35.1,29.83,WNW,293,5.1,7.2,29,0.00,,,0.00,WUHU216HW,2013-01-22 22:41:00,
2013-01-22 14:46:00,68.6,35.9,29.83,WNW,293,2.2,6.5,30,0.00,,,0.00,WUHU216HW,2013-01-22 22:46:00,
2013-01-22 14:51:00,68.6,34.9,29.83,NNW,338,3.4,6.5,29,0.00,,,0.00,WUHU216HW,2013-01-22 22:51:00,
2013-01-22 14:56:00,68.4,35.8,29.83,NW,315,1.3,5.4,30,0.00,,,0.00,WUHU216HW,2013-01-22 22:56:00,
2013-01-22 15:01:00,68.4,35.8,29.83,NW,315,2.7,5.4,30,0.00,,,0.00,WUHU216HW,2013-01-22 23:01:00,
2013-01-22 15:06:00,68.0,35.5,29.82,WNW,293,3.1,5.8,30,0.00,,,0.00,WUHU216HW,2013-01-22 23:06:00,
2013-01-22 15:11:00,67.9,35.3,29.83,WNW,293,4.7,5.8,30,0.00,,,0.00,WUHU216HW,2013-01-22 23:11:00,
2013-01-22 15:16:00,67.7,35.9,29.83,WNW,293,1.1,4.7,31,0.00,,,0.00,WUHU216HW,2013-01-22 23:16:00,
2013-01-22 15:21:00,68.0,36.2,29.82,NW,315,1.1,4.0,31,0.00,,,0.00,WUHU216HW,2013-01-22 23:21:00,
2013-01-22 15:26:00,68.6,34.9,29.82,WNW,293,1.1,2.5,29,0.00,,,0.00,WUHU216HW,2013-01-22 23:26:00,
2013-01-22 15:31:00,69.1,36.5,29.82,WNW,293,0.9,3.6,30,0.00,,,0.00,WUHU216HW,2013-01-22 23:31:00,
2013-01-22 15:36:00,69.8,37.8,29.82,SW,225,1.1,3.6,31,0.00,,,0.00,WUHU216HW,2013-01-22 23:36:00,
2013-01-22 15:41:00,70.2,37.5,29.82,WNW,293,1.1,2.0,30,0.00,,,0.00,WUHU216HW,2013-01-22 23:41:00,
2013-01-22 15:46:00,70.2,38.2,29.82,West,270,0.4,1.8,31,0.00,,,0.00,WUHU216HW,2013-01-22 23:46:00,
2013-01-22 15:51:00,70.2,38.2,29.82,North,0,0.4,1.1,31,0.00,,,0.00,WUHU216HW,2013-01-22 23:51:00,
2013-01-22 15:56:00,70.6,38.4,29.82,NW,315,1.6,1.6,31,0.00,,,0.00,WUHU216HW,2013-01-22 23:56:00,
2013-01-22 16:01:00,70.4,37.5,29.82,North,0,0.4,1.6,30,0.00,,,0.00,WUHU216HW,2013-01-23 00:01:00,
2013-01-22 16:06:00,70.6,38.4,29.82,North,0,0.0,0.7,31,0.00,,,0.00,WUHU216HW,2013-01-23 00:06:00,
2013-01-22 16:11:00,70.6,38.4,29.82,North,0,0.2,0.7,31,0.00,,,0.00,WUHU216HW,2013-01-23 00:11:00,
2013-01-22 16:16:00,70.2,37.5,29.82,NNE,23,1.1,1.1,30,0.00,,,0.00,WUHU216HW,2013-01-23 00:16:00,
2013-01-22 16:21:00,70.2,38.2,29.82,NNE,23,0.0,1.1,31,0.00,,,0.00,WUHU216HW,2013-01-23 00:21:00,
2013-01-22 16:26:00,69.8,38.5,29.82,NNE,23,0.0,0.4,32,0.00,,,0.00,WUHU216HW,2013-01-23 00:26:00,
2013-01-22 16:31:00,69.3,37.4,29.82,NNW,338,0.7,0.9,31,0.00,,,0.00,WUHU216HW,2013-01-23 00:31:00,
2013-01-22 16:36:00,68.8,37.6,29.82,WNW,293,1.6,1.6,32,0.00,,,0.00,WUHU216HW,2013-01-23 00:36:00,
2013-01-22 16:41:00,68.4,37.3,29.82,WNW,293,1.3,2.0,32,0.00,,,0.00,WUHU216HW,2013-01-23 00:41:00,
2013-01-22 16:46:00,68.0,36.9,29.82,WNW,293,1.8,2.2,32,0.00,,,0.00,WUHU216HW,2013-01-23 00:46:00,
2013-01-22 16:51:00,67.3,35.7,29.82,NW,315,0.4,2.2,31,0.00,,,0.00,WUHU216HW,2013-01-23 00:51:00,
2013-01-22 16:56:00,66.6,35.7,29.83,WNW,293,3.1,3.1,32,0.00,,,0.00,WUHU216HW,2013-01-23 00:56:00,
2013-01-22 17:01:00,65.9,35.8,29.83,West,270,3.4,5.6,33,0.00,,,0.00,WUHU216HW,2013-01-23 01:01:00,
2013-01-22 17:06:00,65.0,34.3,29.82,NW,315,4.7,5.6,32,0.00,,,0.00,WUHU216HW,2013-01-23 01:06:00,
2013-01-22 17:11:00,64.1,33.5,29.83,WNW,293,4.0,5.4,32,0.00,,,0.00,WUHU216HW,2013-01-23 01:11:00,
2013-01-22 17:16:00,63.2,34.1,29.82,WNW,293,2.5,5.4,34,0.00,,,0.00,WUHU216HW,2013-01-23 01:16:00,
2013-01-22 17:21:00,62.6,33.7,29.82,NW,315,2.5,3.6,34,0.00,,,0.00,WUHU216HW,2013-01-23 01:21:00,
2013-01-22 17:26:00,62.3,32.6,29.83,NW,315,3.1,3.8,33,0.00,,,0.00,WUHU216HW,2013-01-23 01:26:00,
2013-01-22 17:31:00,61.9,33.0,29.83,NW,315,2.5,3.8,34,0.00,,,0.00,WUHU216HW,2013-01-23 01:31:00,
2013-01-22 17:36:00,61.4,32.5,29.82,NNW,338,2.0,4.0,34,0.00,,,0.00,WUHU216HW,2013-01-23 01:36:00,
2013-01-22 17:41:00,61.2,32.4,29.82,NW,315,1.3,4.0,34,0.00,,,0.00,WUHU216HW,2013-01-23 01:41:00,
2013-01-22 17:46:00,60.8,32.0,29.82,NW,315,0.9,3.4,34,0.00,,,0.00,WUHU216HW,2013-01-23 01:46:00,
2013-01-22 17:51:00,60.8,32.0,29.82,NW,315,0.4,3.4,34,0.00,,,0.00,WUHU216HW,2013-01-23 01:51:00,
2013-01-22 17:56:00,60.7,31.9,29.82,NW,315,0.4,1.6,34,0.00,,,0.00,WUHU216HW,2013-01-23 01:56:00,
2013-01-22 18:01:00,60.5,32.5,29.82,SE,135,1.6,2.2,35,0.00,,,0.00,WUHU216HW,2013-01-23 02:01:00,
2013-01-22 18:06:00,60.1,32.9,29.82,SE,135,0.0,2.2,36,0.00,,,0.00,WUHU216HW,2013-01-23 02:06:00,
2013-01-22 18:12:00,60.1,32.9,29.82,SE,135,0.0,0.9,36,0.00,,,0.00,WUHU216HW,2013-01-23 02:12:00,
2013-01-22 18:17:00,60.1,33.6,29.82,NE,45,0.4,1.1,37,0.00,,,0.00,WUHU216HW,2013-01-23 02:17:00,
2013-01-22 18:22:00,60.1,34.3,29.83,ENE,68,2.2,2.2,38,0.00,,,0.00,WUHU216HW,2013-01-23 02:22:00,
2013-01-22 18:27:00,60.1,34.3,29.82,NNE,23,0.7,2.2,38,0.00,,,0.00,WUHU216HW,2013-01-23 02:27:00,
2013-01-22 18:32:00,60.1,35.0,29.82,ENE,68,1.3,1.8,39,0.00,,,0.00,WUHU216HW,2013-01-23 02:32:00,
2013-01-22 18:37:00,60.3,35.2,29.82,NE,45,0.2,2.5,39,0.00,,,0.00,WUHU216HW,2013-01-23 02:37:00,
2013-01-22 18:42:00,60.1,35.0,29.82,NE,45,0.7,2.5,39,0.00,,,0.00,WUHU216HW,2013-01-23 02:42:00,
2013-01-22 18:47:00,60.1,35.7,29.82,NNE,23,0.0,1.1,40,0.00,,,0.00,WUHU216HW,2013-01-23 02:47:00,
2013-01-22 18:52:00,60.1,35.7,29.83,NNE,23,0.4,1.1,40,0.00,,,0.00,WUHU216HW,2013-01-23 02:52:00,
2013-01-22 18:57:00,60.3,36.5,29.83,NNW,338,0.2,1.1,41,0.00,,,0.00,WUHU216HW,2013-01-23 02:57:00,
2013-01-22 19:02:00,60.1,36.3,29.83,NNW,338,0.2,1.1,41,0.00,,,0.00,WUHU216HW,2013-01-23 03:02:00,
2013-01-22 19:07:00,60.1,36.3,29.83,NNW,338,0.0,0.7,41,0.00,,,0.00,WUHU216HW,2013-01-23 03:07:00,
2013-01-22 19:12:00,60.1,36.3,29.83,South,180,0.7,2.0,41,0.00,,,0.00,WUHU216HW,2013-01-23 03:12:00,
2013-01-22 19:17:00,59.9,36.1,29.83,WSW,248,0.2,2.0,41,0.00,,,0.00,WUHU216HW,2013-01-23 03:17:00,
2013-01-22 19:22:00,59.6,36.4,29.83,WSW,248,0.0,1.8,42,0.00,,,0.00,WUHU216HW,2013-01-23 03:22:00,
2013-01-22 19:27:00,59.2,36.6,29.84,WNW,293,0.2,1.1,43,0.00,,,0.00,WUHU216HW,2013-01-23 03:27:00,
2013-01-22 19:32:00,59.0,36.5,29.83,South,180,0.0,1.1,43,0.00,,,0.00,WUHU216HW,2013-01-23 03:32:00,
2013-01-22 19:37:00,58.5,37.2,29.83,East,90,2.5,2.5,45,0.00,,,0.00,WUHU216HW,2013-01-23 03:37:00,
2013-01-22 19:42:00,57.8,36.5,29.83,ENE,68,4.0,4.0,45,0.00,,,0.00,WUHU216HW,2013-01-23 03:42:00,
2013-01-22 19:47:00,58.0,37.3,29.83,ENE,68,3.1,4.0,46,0.00,,,0.00,WUHU216HW,2013-01-23 03:47:00,
2013-01-22 19:52:00,57.8,37.6,29.83,ENE,68,3.4,4.0,47,0.00,,,0.00,WUHU216HW,2013-01-23 03:52:00,
2013-01-22 19:57:00,57.6,38.1,29.83,ENE,68,2.5,3.4,48,0.00,,,0.00,WUHU216HW,2013-01-23 03:57:00,
2013-01-22 20:02:00,57.4,37.4,29.83,ENE,68,3.4,3.6,47,0.00,,,0.00,WUHU216HW,2013-01-23 04:02:00,
2013-01-22 20:07:00,57.8,35.9,29.83,ENE,68,2.9,3.6,44,0.00,,,0.00,WUHU216HW,2013-01-23 04:07:00,
2013-01-22 20:12:00,58.5,35.4,29.83,East,90,2.0,3.6,42,0.00,,,0.00,WUHU216HW,2013-01-23 04:12:00,
2013-01-22 20:17:00,58.7,35.6,29.84,ESE,113,1.1,3.6,42,0.00,,,0.00,WUHU216HW,2013-01-23 04:17:00,
2013-01-22 20:22:00,58.5,36.5,29.84,ESE,113,0.9,2.5,44,0.00,,,0.00,WUHU216HW,2013-01-23 04:22:00,
2013-01-22 20:27:00,57.8,35.9,29.84,East,90,2.5,2.5,44,0.00,,,0.00,WUHU216HW,2013-01-23 04:27:00,
2013-01-22 20:32:00,57.8,35.9,29.84,ENE,68,1.1,2.5,44,0.00,,,0.00,WUHU216HW,2013-01-23 04:32:00,
2013-01-22 20:37:00,57.8,35.9,29.84,ESE,113,0.7,2.5,44,0.00,,,0.00,WUHU216HW,2013-01-23 04:37:00,
2013-01-22 20:42:00,57.6,36.4,29.84,ESE,113,0.7,0.7,45,0.00,,,0.00,WUHU216HW,2013-01-23 04:42:00,
2013-01-22 20:47:00,57.1,35.8,29.84,ESE,113,0.2,0.9,45,0.00,,,0.00,WUHU216HW,2013-01-23 04:47:00,
2013-01-22 20:52:00,56.7,35.5,29.84,ESE,113,0.0,0.9,45,0.00,,,0.00,WUHU216HW,2013-01-23 04:52:00,
2013-01-22 20:57:00,56.3,35.7,29.84,ESE,113,0.4,0.4,46,0.00,,,0.00,WUHU216HW,2013-01-23 04:57:00,
2013-01-22 21:00:00,56.3,36.3,29.85,ESE,113,0.2,0.4,47,0.00,,,0.00,WUHU216HW,2013-01-23 05:00:00,
2013-01-22 21:02:00,56.2,35.6,29.85,ESE,113,0.0,0.4,46,0.00,,,0.00,WUHU216HW,2013-01-23 05:02:00,
2013-01-22 21:03:00,56.0,35.9,29.85,NNW,338,1.3,1.3,47,0.00,,,0.00,WUHU216HW,2013-01-23 05:03:00,
2013-01-22 21:08:00,55.8,35.7,29.84,NNW,338,1.1,1.3,47,0.00,,,0.00,WUHU216HW,2013-01-23 05:08:00,
2013-01-22 21:13:00,55.6,36.2,29.84,NNW,338,0.0,1.1,48,0.00,,,0.00,WUHU216HW,2013-01-23 05:13:00,
2013-01-22 21:18:00,55.4,36.0,29.84,NNW,338,0.7,0.7,48,0.00,,,0.00,WUHU216HW,2013-01-23 05:18:00,
2013-01-22 21:23:00,55.4,36.0,29.85,NNW,338,0.0,0.7,48,0.00,,,0.00,WUHU216HW,2013-01-23 05:23:00,
2013-01-22 21:28:00,55.4,36.0,29.85,NNW,338,0.4,0.7,48,0.00,,,0.00,WUHU216HW,2013-01-23 05:28:00,
2013-01-22 21:33:00,55.4,36.6,29.85,NNW,338,1.3,1.3,49,0.00,,,0.00,WUHU216HW,2013-01-23 05:33:00,
2013-01-22 21:38:00,55.4,36.0,29.85,NNW,338,0.2,1.3,48,0.00,,,0.00,WUHU216HW,2013-01-23 05:38:00,
2013-01-22 21:43:00,55.6,36.2,29.85,NNW,338,0.0,1.1,48,0.00,,,0.00,WUHU216HW,2013-01-23 05:43:00,
2013-01-22 21:48:00,55.4,36.0,29.86,NW,315,1.3,1.3,48,0.00,,,0.00,WUHU216HW,2013-01-23 05:48:00,
2013-01-22 21:53:00,55.1,36.2,29.86,NW,315,0.4,1.3,49,0.00,,,0.00,WUHU216HW,2013-01-23 05:53:00,
2013-01-22 21:58:00,54.7,36.5,29.86,NW,315,0.7,1.1,50,0.00,,,0.00,WUHU216HW,2013-01-23 05:58:00,
2013-01-22 22:03:00,54.5,36.3,29.86,NW,315,0.9,1.1,50,0.00,,,0.00,WUHU216HW,2013-01-23 06:03:00,
2013-01-22 22:08:00,54.7,36.5,29.86,NNW,338,0.4,1.3,50,0.00,,,0.00,WUHU216HW,2013-01-23 06:08:00,
2013-01-22 22:13:00,54.9,36.6,29.86,NNW,338,0.4,1.3,50,0.00,,,0.00,WUHU216HW,2013-01-23 06:13:00,
2013-01-22 22:18:00,55.1,36.7,29.86,NW,315,2.2,2.2,50,0.00,,,0.00,WUHU216HW,2013-01-23 06:18:00,
2013-01-22 22:23:00,55.4,36.6,29.86,NW,315,1.3,2.2,49,0.00,,,0.00,WUHU216HW,2013-01-23 06:23:00,
2013-01-22 22:28:00,55.8,36.4,29.86,NNW,338,0.4,2.5,48,0.00,,,0.00,WUHU216HW,2013-01-23 06:28:00,
2013-01-22 22:33:00,55.8,36.4,29.86,NNW,338,0.7,2.5,48,0.00,,,0.00,WUHU216HW,2013-01-23 06:33:00,
2013-01-22 22:38:00,55.8,36.4,29.86,NNW,338,0.0,0.7,48,0.00,,,0.00,WUHU216HW,2013-01-23 06:38:00,
2013-01-22 22:43:00,56.0,35.9,29.86,SE,135,1.1,1.1,47,0.00,,,0.00,WUHU216HW,2013-01-23 06:43:00,
2013-01-22 22:48:00,56.0,35.9,29.86,NW,315,0.0,1.1,47,0.00,,,0.00,WUHU216HW,2013-01-23 06:48:00,
2013-01-22 22:53:00,56.0,35.9,29.86,NNE,23,0.7,1.6,47,0.00,,,0.00,WUHU216HW,2013-01-23 06:53:00,
2013-01-22 22:58:00,56.0,35.9,29.86,NNE,23,0.0,1.6,47,0.00,,,0.00,WUHU216HW,2013-01-23 06:58:00,
2013-01-22 23:03:00,56.0,35.9,29.86,NNE,23,0.0,0.7,47,0.00,,,0.00,WUHU216HW,2013-01-23 07:03:00,
2013-01-22 23:08:00,55.8,35.7,29.87,NNE,23,0.0,0.7,47,0.00,,,0.00,WUHU216HW,2013-01-23 07:08:00,
2013-01-22 23:13:00,55.8,36.4,29.86,NNE,23,0.2,0.4,48,0.00,,,0.00,WUHU216HW,2013-01-23 07:13:00,
2013-01-22 23:18:00,55.8,36.4,29.86,NNE,23,0.4,1.1,48,0.00,,,0.00,WUHU216HW,2013-01-23 07:18:00,
2013-01-22 23:23:00,55.8,36.4,29.86,NE,45,1.6,2.9,48,0.00,,,0.00,WUHU216HW,2013-01-23 07:23:00,
2013-01-22 23:28:00,56.2,36.1,29.85,North,0,0.2,2.9,47,0.00,,,0.00,WUHU216HW,2013-01-23 07:28:00,
2013-01-22 23:33:00,56.2,36.1,29.86,North,0,0.2,0.9,47,0.00,,,0.00,WUHU216HW,2013-01-23 07:33:00,
2013-01-22 23:39:00,56.0,35.9,29.86,ENE,68,0.4,1.3,47,0.00,,,0.00,WUHU216HW,2013-01-23 07:39:00,
2013-01-22 23:44:00,56.0,35.9,29.86,ENE,68,0.2,1.3,47,0.00,,,0.00,WUHU216HW,2013-01-23 07:44:00,
2013-01-22 23:49:00,56.0,35.9,29.86,NNE,23,0.0,1.8,47,0.00,,,0.00,WUHU216HW,2013-01-23 07:49:00,
2013-01-22 23:54:00,56.2,35.6,29.86,East,90,2.9,3.4,46,0.00,,,0.00,WUHU216HW,2013-01-23 07:54:00,
2013-01-22 23:59:00,56.7,35.5,29.85,East,90,1.1,3.4,45,0.00,,,0.00,WUHU216HW,2013-01-23 07:59:00,